Regional Weather Roundup
Issued by NWS

Home | Current Version | Previous Version | Graphics & Text | Print | Product List | Glossary On
Versions: 1 2 3 4 5 6 7 8 9 10 11 12 13 14 15 16 17 18 19 20 21 22 23 24 25 26 27 28
000
ASUS45 KCYS 231610
RWRWY

WYOMING REGIONAL WEATHER ROUNDUP
NATIONAL WEATHER SERVICE CHEYENNE WY
1000 AM MDT FRI JUN 23 2017

NOTE:  "FAIR" INDICATES FEW OR NO CLOUDS BELOW 12,000 FEET
WITH NO SIGNIFICANT WEATHER AND/OR OBSTRUCTIONS TO VISIBILITY.

WYZ001-231700-
YELLOWSTONE NATIONAL PARK

CITY           SKY/WX    TMP DP  RH WIND       PRES   REMARKS
LK YELLOWSTONE   N/A     48  31  51 VRB3      30.37S
W YELLOWSTONE  NOT AVBL

$$
WYZ002>013-054>058-071-098>099-231700-
NORTHERN WYOMING

CITY           SKY/WX    TMP DP  RH WIND       PRES   REMARKS
JACKSON        SUNNY     54  34  47 CALM      30.31S
CODY           FAIR      59  23  25 CALM      30.32S
GREYBULL       FAIR      63  23  21 N14G20    30.26F
WORLAND        FAIR      61  29  29 VRB7      30.28F
SHERIDAN       FAIR      60  35  39 N13       30.29S
BUFFALO        FAIR      56  37  49 N14G24    30.30S
GILLETTE       FAIR      57  33  40 NW20G28   30.27S
NEWCASTLE      FAIR      54  32  43 NW18G26   30.25S

$$
WYZ014>020-022>026-101>103-231700-
CENTRAL WYOMING

CITY           SKY/WX    TMP DP  RH WIND       PRES   REMARKS
BIG PINEY      FAIR      57  32  38 S10G18    30.33F
PINEDALE       FAIR      52  30  43 CALM      30.35S
DUBOIS         FAIR      48  32  53 CALM      30.34F
LANDER         FAIR      56  34  43 VRB3      30.30F
RIVERTON       FAIR      56  31  38 CALM      30.31F
CASPER         FAIR      57  33  40 VRB6      30.30S
DOUGLAS        FAIR      58  37  45 NW6G16    30.29S

$$
WYZ021-027>030-104>119-231700-
SOUTHERN WYOMING

CITY           SKY/WX    TMP DP  RH WIND       PRES   REMARKS
EVANSTON       FAIR      59  35  40 SE7       30.31S
KEMMERER         N/A     55  30  38 E3        30.33F
FORT BRIDGER   FAIR      58  32  37 N3        30.34F
ROCK SPRINGS   FAIR      57  30  35 E10       30.31S
DIXON          FAIR      62  35  37 SW5       30.29F
RAWLINS        FAIR      58  34  40 NE9       30.30F
SARATOGA       FAIR      57  36  44 CALM      30.30S
LARAMIE        FAIR      53  37  54 MISG      30.30F
CHEYENNE       CLOUDY    52  37  56 VRB5      30.31F
TORRINGTON     CLOUDY    60  37  42 N7        30.25F
PINE BLUFFS    CLOUDY    54  37  54 N7        30.30S

$$




USA.gov is the U.S. government's official web portal to all federal, state and local government web resources and services.